Temp
71 70 69 69 69 69 69 68 68 68 68 68 70 70 69 69 69 68 67 69 68 67 67 66 65 66 67 68 68 67 66 64 61 64 64 61 61 61 62 63 63 65 66
72 70 69 69 69 68 68 69 69 68 69 70 70 70 70 69 68 68 67 69 66 65 66 66 66 68 64 62 63 61 62 61 61 57 61 63 63 61 59 58 61 64 61
71 70 68 68 68 68 68 68 69 69 69 69 69 68 69 68 68 67 67 67 66 66 66 65 65 65 64 66 62 60 64 63 60 57 58 62 63 61 59 59 58 59 60
70 69 68 68 68 68 69 69 69 70 69 69 68 69 68 69 68 68 68 67 66 67 66 66 66 65 64 64 62 63 64 61 60 56 59 59 61 63 60 57 55 58 55
69 68 68 68 69 69 69 69 69 69 70 70 69 69 68 69 71 68 68 67 66 66 66 68 67 66 60 59 62 61 60 62 63 62 62 58 59 58 55 58 52 55 55
69 68 68 68 69 68 68 68 68 68 69 69 68 68 68 70 57 55 58 65 66 66 65 67 66 64 63 57 57 56 56 58 57 60 60 57 54 54 57 54 52 50 49
70 69 69 68 68 68 69 68 68 67 68 67 67 68 67 68 56 52 52 64 65 66 65 65 66 69 65 66 61 57 56 53 53 58 56 55 53 53 55 51 50 50 47
70 70 69 68 69 69 68 68 67 67 66 66 67 67 67 69 55 51 50 62 66 67 66 66 65 65 60 59 61 63 64 64 59 62 59 58 57 56 55 52 50 50 50
69 69 70 69 69 69 67 67 67 66 66 66 67 67 67 68 55 50 52 66 69 67 68 66 64 64 45 46 59 60 61 59 56 52 50 48 47 46 48 52 50 48 46
70 70 71 70 69 68 68 67 67 67 67 69 68 68 64 67 57 49 52 68 67 68 65 61 48 53 44 44 57 59 57 55 57 57 58 55 52 54 49 49 46 41 41
72 71 71 70 69 69 68 67 66 66 67 66 67 68 69 66 65 48 46 63 68 68 66 65 65 45 43 44 44 57 53 52 55 57 55 54 54 54 54 53 52 45 41
71 70 70 69 70 70 66 66 66 66 65 65 66 68 67 71 46 47 46 48 51 65 65 66 61 44 44 44 47 44 43 45 54 54 51 50 48 49 52 55 51 50 48
70 69 68 69 69 68 66 65 67 66 68 68 66 66 71 71 66 46 45 46 49 62 63 52 48 46 45 48 45 46 44 55 54 52 48 50 53 53 53 53 54 55 55
67 66 68 67 66 67 70 69 69 70 69 68 67 70 71 69 70 70 68 64 51 58 54 61 57 50 45 51 54 54 55 54 53 51 51 52 55 55 54 54 53 54 50
68 68 67 69 67 66 69 68 70 68 61 67 70 70 69 67 60 48 53 63 62 55 53 64 63 56 57 54 53 49 50 50 48 53 53 53 55 54 53 54 54 49 47
67 68 69 69 69 69 69 65 40 42 41 41 43 52 61 46 42 42 42 42 43 44 59 61 61 55 55 51 49 47 50 48 49 50 52 52 51 51 52 55 55 52 49
68 68 69 68 70 70 70 70 63 51 41 40 40 42 43 44 41 42 42 43 45 47 62 61 60 53 53 54 52 50 52 53 47 49 53 51 51 53 53 54 54 53 52
69 56 69 71 71 71 71 71 70 67 64 60 44 50 40 41 41 42 45 45 60 58 62 61 60 54 56 51 51 51 52 46 45 50 51 51 52 53 52 54 55 52 53
69 70 71 72 73 69 73 73 73 70 68 64 61 53 47 42 43 45 48 62 62 61 61 61 61 57 51 50 50 50 48 41 48 53 55 55 56 54 54 56 56 44 46
69 57 63 72 72 72 73 71 71 69 68 68 68 66 67 60 63 64 64 63 62 61 61 60 61 59 51 45 44 47 52 45 50 52 54 56 57 56 56 55 56 55 56
70 69 59 73 73 73 72 72 71 70 69 67 64 56 33 62 63 63 63 62 62 61 60 60 61 61 60 50 46 49 50 52 52 52 53 55 55 54 56 56 58 58 55
71 71 72 73 74 72 71 71 71 70 68 66 64 58 40 64 64 62 62 61 62 61 62 60 61 61 61 58 55 54 54 53 53 53 51 52 54 55 56 57 57 57 55
73 72 73 73 72 60 69 70 69 68 67 66 67 65 64 63 62 61 60 60 61 61 61 61 60 60 61 59 58 55 53 51 49 48 47 50 52 54 55 56 56 55 54
74 73 72 71 71 71 69 68 67 58 66 65 64 64 62 62 61 59 60 59 60 60 60 60 59 59 57 57 58 59 56 48 42 43 47 48 51 52 55 55 56 54 53
74 73 72 70 70 69 67 67 66 66 65 64 63 63 62 61 60 59 59 59 59 59 58 59 59 57 57 55 57 53 43 33 37 35 45 48 50 52 55 55 54 55 54
73 72 71 71 69 68 67 66 65 64 63 63 62 61 61 60 59 58 58 57 57 57 57 58 58 56 56 57 52 39 34 33 37 32 38 46 53 54 54 52 53 54 53
MSLP
1017.84 1018.59 1019.12 1019.48 1020.05 1020.46 1020.63 1020.86 1021.08 1021.31 1021.40 1021.48 1021.55 1021.48 1021.42 1021.61 1021.67 1021.57 1021.47 1021.33 1021.23 1021.25 1021.20 1020.99 1020.72 1020.61 1020.15 1019.72 1019.45 1019.05 1018.60 1018.34 1017.77 1017.27 1017.43 1017.66 1017.54 1017.43 1017.34 1017.13 1016.98 1016.08 1015.67
1017.36 1018.26 1018.86 1019.28 1019.82 1020.13 1020.33 1020.58 1020.82 1021.13 1021.24 1021.36 1021.46 1021.59 1021.42 1021.44 1021.66 1021.60 1021.37 1021.25 1021.17 1021.09 1020.95 1020.80 1020.51 1020.22 1020.21 1019.86 1019.51 1019.11 1018.66 1018.83 1018.24 1017.72 1017.41 1016.91 1016.49 1016.78 1016.98 1016.99 1016.60 1016.16 1016.13
1017.05 1017.93 1018.59 1018.97 1019.54 1019.89 1020.29 1020.58 1020.64 1020.92 1021.05 1021.07 1021.20 1021.34 1021.39 1021.49 1021.55 1021.65 1021.51 1021.24 1021.10 1021.01 1020.84 1020.60 1020.37 1020.11 1019.87 1019.52 1019.48 1019.42 1018.60 1018.07 1018.00 1017.58 1017.20 1016.80 1016.32 1016.39 1016.45 1016.43 1016.34 1015.88 1015.70
1016.66 1017.44 1018.12 1018.64 1019.26 1019.71 1020.02 1020.45 1020.59 1020.59 1020.64 1020.92 1021.02 1020.94 1021.12 1021.25 1021.40 1021.52 1021.38 1021.20 1020.98 1020.70 1020.53 1020.38 1020.12 1019.84 1019.48 1019.24 1019.22 1018.74 1017.80 1018.03 1017.73 1017.47 1016.69 1016.25 1015.86 1015.45 1015.90 1015.87 1015.71 1015.43 1015.26
1016.20 1016.97 1017.67 1018.43 1018.96 1019.46 1019.78 1020.00 1020.25 1020.41 1020.41 1020.52 1020.83 1020.99 1020.84 1021.09 1021.11 1021.29 1021.34 1021.01 1020.68 1020.35 1020.02 1019.69 1019.46 1019.18 1019.51 1019.49 1019.26 1018.68 1018.45 1017.71 1017.05 1016.30 1015.66 1015.79 1015.32 1015.47 1015.73 1015.68 1015.76 1015.08 1014.82
1015.80 1016.54 1017.32 1018.06 1018.65 1019.07 1019.37 1019.65 1020.05 1020.30 1020.53 1020.48 1020.61 1020.59 1020.74 1020.73 1021.07 1021.50 1021.79 1021.06 1020.42 1019.90 1019.39 1019.06 1019.07 1018.74 1018.41 1018.79 1018.86 1018.91 1018.80 1018.27 1017.78 1016.80 1016.20 1015.80 1015.90 1016.08 1015.87 1015.91 1015.56 1015.13 1014.40
1015.27 1016.14 1016.85 1017.66 1018.10 1018.65 1019.02 1019.31 1019.70 1020.03 1020.23 1020.20 1020.38 1020.40 1020.52 1020.69 1020.93 1021.28 1021.50 1021.06 1020.15 1019.43 1019.00 1018.78 1018.68 1018.07 1018.45 1018.36 1018.34 1018.14 1017.72 1017.56 1017.48 1017.38 1016.85 1016.49 1016.52 1016.50 1016.22 1015.86 1015.57 1015.36 1015.02
1014.90 1015.64 1016.40 1017.10 1017.67 1018.27 1018.79 1019.05 1019.52 1019.93 1020.14 1020.24 1020.16 1020.23 1020.22 1020.33 1020.65 1020.97 1021.14 1020.60 1019.57 1018.77 1018.65 1018.47 1018.44 1018.40 1018.87 1019.11 1018.61 1017.66 1017.13 1016.90 1017.03 1016.93 1017.00 1016.78 1016.71 1016.64 1016.44 1016.17 1015.94 1015.47 1014.89
1014.37 1015.18 1015.95 1016.70 1017.28 1017.83 1018.39 1018.81 1019.26 1019.68 1019.79 1019.87 1019.85 1019.97 1019.90 1019.92 1020.11 1020.33 1020.42 1019.60 1018.29 1018.23 1018.23 1018.56 1018.89 1018.74 1019.43 1019.36 1018.77 1017.71 1017.12 1016.87 1017.06 1017.21 1017.20 1017.30 1017.21 1017.08 1016.96 1016.27 1015.35 1015.08 1014.59
1013.92 1014.81 1015.63 1016.46 1017.04 1017.51 1018.02 1018.63 1019.20 1019.64 1019.54 1019.29 1019.35 1019.53 1019.53 1019.59 1019.59 1019.84 1019.98 1019.00 1018.00 1017.88 1018.28 1018.31 1019.20 1019.52 1019.68 1019.48 1018.93 1017.89 1017.20 1017.19 1017.03 1016.65 1016.51 1016.25 1016.24 1015.89 1016.13 1016.09 1015.73 1015.42 1015.09
1013.61 1014.66 1015.50 1016.31 1016.93 1017.42 1017.93 1018.36 1018.81 1018.94 1018.82 1018.93 1018.82 1018.85 1018.86 1018.86 1019.10 1019.66 1019.76 1019.24 1018.05 1017.79 1017.59 1017.72 1018.26 1019.48 1019.72 1019.51 1019.12 1018.27 1018.26 1018.21 1017.13 1016.58 1016.54 1016.35 1015.93 1015.54 1015.28 1015.13 1015.00 1015.26 1014.89
1013.39 1014.47 1015.33 1016.18 1016.67 1017.19 1017.63 1018.16 1018.46 1018.70 1018.79 1018.50 1018.37 1018.01 1017.60 1018.04 1019.26 1019.80 1019.86 1019.63 1019.29 1018.34 1017.98 1018.14 1018.92 1019.63 1019.49 1019.13 1019.09 1018.77 1018.44 1017.98 1017.02 1016.76 1016.68 1016.28 1016.03 1015.68 1015.21 1014.70 1014.65 1014.55 1014.25
1013.38 1014.29 1015.25 1015.98 1016.46 1017.10 1017.50 1018.09 1018.29 1018.45 1018.08 1017.86 1017.66 1017.36 1017.13 1017.88 1019.02 1019.97 1020.06 1019.90 1019.61 1018.65 1018.99 1019.27 1019.36 1019.09 1018.89 1019.05 1019.00 1018.58 1018.01 1017.27 1016.92 1016.59 1016.52 1016.10 1015.42 1015.18 1014.95 1014.20 1013.87 1013.30 1012.86
1013.24 1014.33 1015.08 1015.80 1016.45 1016.98 1017.23 1017.68 1017.42 1017.28 1017.45 1017.40 1017.17 1017.06 1017.37 1018.08 1018.49 1018.74 1018.94 1019.30 1019.29 1019.09 1018.95 1018.52 1018.54 1018.90 1018.94 1018.98 1018.55 1018.17 1017.88 1017.57 1017.23 1016.82 1016.40 1015.95 1015.20 1014.57 1014.02 1013.56 1013.24 1012.79 1012.56
1013.17 1014.14 1014.95 1015.63 1016.34 1016.90 1017.07 1017.60 1017.37 1018.02 1018.55 1018.55 1017.83 1017.75 1017.94 1018.34 1019.90 1020.36 1020.05 1019.62 1019.63 1019.48 1019.22 1017.98 1017.58 1018.45 1018.28 1018.69 1018.63 1018.58 1018.31 1017.93 1017.44 1016.66 1015.99 1015.54 1014.67 1014.01 1013.50 1012.99 1012.60 1012.56 1012.16
1013.03 1013.96 1014.63 1015.40 1016.03 1016.57 1017.03 1018.17 1019.12 1019.30 1019.43 1019.64 1019.72 1019.47 1019.85 1020.27 1020.79 1020.90 1020.79 1020.58 1020.26 1019.70 1018.45 1017.80 1017.57 1018.22 1018.28 1018.62 1018.77 1018.58 1018.07 1017.76 1017.47 1016.91 1016.14 1015.42 1014.90 1014.25 1013.47 1012.66 1012.03 1011.77 1011.43
1012.84 1013.79 1014.60 1015.08 1015.56 1015.91 1016.18 1016.64 1018.21 1019.74 1019.73 1020.15 1020.14 1020.23 1020.46 1021.10 1021.21 1021.14 1020.86 1020.54 1019.95 1019.31 1018.19 1017.87 1017.69 1018.47 1018.40 1018.41 1018.43 1018.13 1017.54 1017.23 1017.51 1016.89 1015.83 1015.42 1014.82 1014.19 1013.26 1012.45 1011.77 1011.24 1010.68
1013.21 1014.04 1014.47 1014.71 1015.16 1015.46 1015.67 1016.03 1016.49 1017.78 1018.41 1019.85 1020.67 1020.86 1021.19 1021.41 1021.37 1021.10 1020.55 1019.99 1018.86 1018.51 1018.11 1017.96 1017.80 1018.46 1018.51 1018.84 1018.68 1018.11 1017.71 1017.92 1017.55 1016.55 1015.85 1015.31 1014.63 1013.80 1013.30 1012.29 1011.52 1011.04 1010.44
1013.57 1013.91 1014.21 1014.56 1014.90 1015.03 1015.31 1015.68 1015.94 1016.77 1017.64 1018.96 1020.23 1020.93 1021.13 1021.10 1020.91 1020.54 1020.02 1019.01 1018.54 1018.23 1018.17 1018.05 1017.92 1018.39 1019.43 1019.43 1019.08 1018.55 1018.35 1018.26 1017.24 1015.86 1015.04 1014.45 1013.92 1013.55 1012.91 1011.95 1011.24 1011.24 1010.61
1013.48 1014.04 1014.13 1014.48 1015.09 1015.27 1015.30 1015.52 1015.96 1016.73 1017.39 1017.89 1018.45 1018.96 1019.21 1019.59 1019.37 1019.15 1019.02 1018.92 1018.58 1018.41 1018.41 1018.33 1018.14 1018.12 1019.35 1019.70 1019.51 1018.96 1017.81 1017.94 1016.91 1015.93 1015.11 1014.30 1013.52 1012.99 1012.23 1011.49 1010.75 1010.00 1009.17
1013.44 1014.27 1014.30 1014.37 1014.61 1014.67 1014.97 1015.50 1016.14 1016.63 1017.20 1017.85 1018.97 1020.30 1020.44 1019.56 1019.21 1019.08 1018.94 1018.89 1018.75 1018.72 1018.68 1018.63 1018.18 1017.84 1018.35 1019.21 1019.31 1018.68 1018.04 1017.24 1016.73 1016.11 1015.31 1014.49 1013.67 1012.80 1011.95 1011.09 1010.30 1009.59 1009.01
1013.42 1013.90 1014.00 1014.06 1014.24 1014.74 1015.25 1015.72 1016.28 1016.83 1017.38 1018.08 1019.01 1020.18 1020.27 1019.48 1019.27 1019.20 1019.17 1019.15 1019.08 1018.99 1018.85 1018.77 1018.41 1018.01 1017.62 1018.20 1018.30 1018.07 1017.65 1017.20 1016.69 1016.21 1015.79 1015.03 1013.87 1012.79 1011.73 1010.85 1010.00 1009.26 1008.90
1013.15 1013.51 1013.53 1013.91 1014.51 1015.58 1015.89 1016.14 1016.71 1017.30 1017.73 1018.25 1018.76 1019.11 1019.40 1019.52 1019.58 1019.66 1019.65 1019.59 1019.45 1019.21 1019.11 1018.98 1018.73 1018.29 1018.20 1018.21 1018.06 1018.13 1017.88 1017.62 1017.43 1017.06 1016.27 1014.99 1013.90 1012.77 1011.80 1010.69 1009.92 1009.26 1008.91
1013.03 1013.19 1013.57 1014.39 1014.99 1015.53 1016.19 1016.71 1017.40 1017.96 1018.11 1018.58 1019.19 1019.53 1019.73 1019.88 1019.91 1019.97 1019.94 1019.85 1019.67 1019.51 1019.35 1019.24 1019.04 1018.84 1018.79 1018.45 1017.97 1017.55 1017.59 1018.20 1018.34 1017.44 1016.36 1015.20 1013.83 1012.69 1011.61 1010.59 1009.83 1009.55 1009.07
1012.90 1013.36 1013.92 1014.75 1015.21 1015.95 1016.74 1017.09 1017.62 1018.12 1018.58 1019.15 1019.51 1019.82 1020.00 1020.16 1020.18 1020.21 1020.19 1020.12 1020.02 1019.81 1019.63 1019.45 1019.18 1019.10 1018.78 1018.57 1018.11 1018.40 1018.56 1018.67 1018.25 1017.70 1016.33 1015.05 1013.77 1012.45 1011.22 1010.35 1009.84 1009.31 1008.84
1013.56 1013.87 1014.31 1014.95 1015.68 1016.30 1016.86 1017.52 1018.16 1018.65 1019.09 1019.69 1019.97 1020.26 1020.44 1020.46 1020.57 1020.55 1020.54 1020.50 1020.42 1020.11 1019.90 1019.55 1019.36 1019.25 1018.84 1018.27 1018.56 1018.91 1018.54 1018.20 1017.63 1017.31 1016.56 1014.74 1012.92 1011.85 1011.05 1010.58 1009.90 1009.16 1008.70
Wind_Speed
13 12 12 10 9 8 7 7 6 5 5 5 2 1 2 1 2 2 0 1 1 2 4 5 6 5 6 7 7 7 7 8 10 10 9 5 7 6 9 8 12 11 10
13 13 12 11 10 10 9 8 7 6 5 4 3 2 1 1 3 3 3 2 4 5 6 6 6 6 7 6 6 6 8 7 10 13 10 11 9 4 5 7 8 9 10
14 13 13 12 11 10 9 7 7 6 6 5 4 4 2 1 3 4 5 5 5 6 7 8 9 9 9 9 8 10 11 9 9 8 11 10 11 6 7 8 8 10 8
15 14 13 12 11 10 9 8 7 6 6 6 5 4 4 4 4 5 5 6 7 8 9 9 10 11 11 11 12 12 12 10 10 9 10 8 10 6 6 9 10 9 9
16 15 13 12 11 11 9 8 7 6 6 6 5 5 4 5 6 5 7 8 9 11 11 11 13 9 8 13 10 12 13 12 12 12 11 8 10 10 9 9 10 11 9
16 15 14 12 12 11 10 8 6 7 6 6 6 6 6 6 8 4 8 11 12 13 13 13 12 14 9 10 11 9 9 10 12 11 12 13 10 10 9 10 12 11 12
16 15 14 13 13 11 10 9 7 6 6 5 6 7 7 8 5 8 8 11 13 13 13 11 9 8 8 10 7 11 14 16 12 8 12 12 13 10 12 13 11 11 10
16 15 14 14 12 11 10 8 6 5 6 6 5 7 7 8 7 8 7 12 13 12 10 6 7 8 9 8 10 14 14 12 3 8 10 12 12 13 11 10 11 11 9
16 15 15 13 12 11 10 8 7 5 5 5 5 7 8 10 6 6 7 11 11 8 5 5 7 7 9 7 11 14 13 7 1 6 9 7 9 9 9 8 8 8 9
17 15 14 13 11 11 9 6 5 5 5 6 5 7 9 11 9 3 5 10 7 4 5 5 9 7 6 6 10 13 11 10 12 11 10 9 7 5 11 8 5 6 6
16 15 13 12 11 10 8 6 6 6 4 5 7 8 10 10 4 4 5 10 6 5 6 5 7 8 5 6 8 9 10 11 11 8 7 7 8 8 7 6 6 5 6
17 15 13 12 10 9 9 7 7 6 6 6 8 9 7 1 9 6 3 5 6 7 5 6 6 5 7 10 9 7 9 11 6 5 6 8 6 8 8 7 6 9 7
17 15 14 13 10 9 9 7 7 7 6 7 6 3 2 3 6 5 3 2 2 6 7 2 5 10 13 4 3 6 10 5 6 7 6 8 8 6 9 9 7 9 10
17 15 13 12 10 9 8 7 6 6 5 5 4 3 3 3 2 1 4 5 7 6 4 6 4 6 3 4 6 6 7 7 7 6 9 8 8 7 8 7 7 7 8
16 14 13 10 10 9 7 1 3 6 7 7 4 3 5 4 6 6 8 8 8 7 10 4 4 4 6 8 8 6 5 7 8 8 9 8 9 9 8 6 7 4 8
15 12 11 10 9 9 8 6 12 9 7 5 3 7 8 11 6 5 5 3 4 8 7 5 6 6 7 6 8 6 9 4 6 9 9 8 8 9 10 10 8 7 7
14 13 10 9 9 9 8 8 7 6 9 10 9 11 13 9 5 3 3 3 6 9 3 6 7 7 7 6 6 8 8 6 6 8 9 9 8 9 10 10 10 8 10
14 11 11 9 9 8 7 6 5 8 8 8 6 6 7 6 3 2 8 9 5 3 6 7 7 6 8 8 8 9 8 7 8 8 8 9 9 9 10 11 10 11 11
13 11 10 9 8 6 6 4 4 5 6 8 8 8 6 8 8 8 10 5 5 6 7 7 7 7 8 9 9 8 8 7 10 9 8 7 8 8 10 11 11 10 13
12 11 8 8 8 8 6 5 6 5 5 4 3 3 2 7 2 4 4 5 6 6 7 8 7 5 5 4 7 9 8 7 10 10 11 10 10 10 11 12 11 11 12
10 10 5 8 9 7 5 5 5 5 4 5 6 6 5 6 4 4 5 5 6 7 7 8 8 7 4 6 7 7 9 9 9 10 11 12 12 12 12 12 12 12 11
12 11 10 7 7 6 6 6 5 5 5 5 6 5 7 4 5 5 5 6 7 7 6 7 8 8 7 5 8 9 10 10 11 11 12 13 13 13 13 13 13 12 11
11 11 8 6 7 8 6 6 5 5 5 5 4 4 4 5 5 6 6 6 6 7 7 7 8 9 9 9 7 8 10 11 11 12 13 13 13 13 13 13 13 12 11
10 10 9 10 8 7 6 6 7 7 5 5 4 4 4 5 5 6 6 6 7 7 7 7 8 10 11 10 9 9 9 10 11 11 15 14 14 14 13 13 12 13 10
9 9 10 10 9 8 7 6 6 6 6 5 4 4 5 5 5 6 7 7 7 7 8 8 8 11 13 15 12 16 15 10 11 11 12 15 15 18 14 12 13 13 13
9 10 10 9 8 7 6 6 6 6 6 4 4 4 5 5 6 6 7 8 8 8 9 8 10 14 15 11 15 16 10 9 13 12 12 12 12 12 12 14 17 11 12
Wind_Direction
170 172 167 166 171 176 173 166 167 163 172 197 202 189 45 11 201 192 97 144 33 349 322 327 315 333 333 319 331 308 306 304 308 316 319 308 302 287 308 314 304 312 317
170 173 173 166 173 173 172 172 166 177 179 190 197 250 43 90 188 219 242 309 307 310 312 308 318 327 311 296 291 300 306 294 296 304 307 304 293 328 288 301 307 332 306
170 173 176 173 182 182 183 184 186 194 191 203 204 230 224 107 218 239 267 277 283 286 289 291 296 298 295 312 308 309 312 320 296 307 297 303 327 318 313 305 306 305 320
171 176 178 177 183 186 185 187 202 209 209 206 220 230 233 239 248 257 263 273 280 280 284 284 289 290 293 300 303 308 300 318 287 276 292 296 290 317 326 319 316 317 314
173 177 177 178 180 186 187 195 201 211 210 214 231 236 234 252 246 257 280 281 283 282 284 282 272 297 310 280 296 305 313 306 312 308 313 298 316 337 322 323 308 319 312
175 177 174 177 183 186 190 189 199 208 216 229 237 251 256 260 106 233 267 283 286 288 290 295 310 274 250 241 243 252 280 299 308 314 313 321 323 325 325 317 316 315 318
175 173 173 179 185 187 190 184 196 207 219 229 258 248 258 267 214 244 247 276 284 289 294 301 306 337 319 341 320 250 249 225 234 298 303 323 320 327 315 312 314 315 302
175 173 174 179 188 185 187 187 191 215 233 241 254 246 259 265 241 250 253 280 278 281 292 301 310 323 44 339 324 312 329 319 1 310 323 319 325 328 313 312 307 293 284
177 171 174 179 186 182 188 190 201 218 227 238 247 248 257 272 246 252 285 290 276 318 311 349 345 341 30 358 313 324 316 351 192 208 252 290 280 275 272 299 300 318 307
171 171 172 177 184 181 181 186 187 221 237 255 229 247 264 275 276 149 282 288 298 293 248 150 87 36 349 325 318 319 329 341 326 322 329 317 264 296 231 254 297 293 297
165 170 166 171 180 173 165 170 197 209 251 225 252 263 271 276 306 57 325 283 329 304 322 337 75 50 334 305 294 329 341 318 310 319 333 324 320 324 322 309 295 275 275
160 160 161 166 175 161 166 176 194 207 218 237 256 260 255 40 46 76 7 7 350 319 341 13 35 358 285 272 305 356 305 285 301 330 327 315 313 311 307 298 296 284 255
156 154 161 164 165 161 167 174 192 199 246 245 261 278 316 73 118 130 148 214 331 317 11 71 243 256 258 340 261 323 288 335 332 323 335 308 316 296 302 292 279 284 290
152 157 159 166 162 167 171 182 214 203 234 266 268 319 33 103 67 102 161 188 179 242 178 207 300 305 277 33 317 355 343 338 326 321 307 309 302 306 314 304 311 316 311
150 157 162 160 176 162 196 182 234 53 8 328 1 6 355 79 65 35 23 8 355 13 304 312 355 3 1 359 354 356 334 341 333 323 321 317 318 324 322 315 322 294 293
154 161 167 157 166 175 172 137 54 41 31 13 33 3 78 78 104 87 79 61 332 306 288 346 358 353 11 23 328 331 320 358 326 320 314 318 316 318 314 321 317 311 299
159 158 153 160 172 177 180 171 142 88 79 57 55 61 66 108 130 152 202 225 249 276 304 358 359 10 359 347 327 328 333 347 347 307 315 320 321 312 317 321 318 318 315
154 145 160 161 170 176 178 182 166 163 145 124 71 88 99 120 144 263 280 262 229 233 3 355 359 2 1 353 334 334 343 354 319 323 321 324 318 325 318 316 322 320 313
153 159 164 165 176 182 165 181 170 127 126 120 138 164 168 195 199 217 249 334 353 358 3 352 349 24 2 339 330 331 341 332 307 314 322 320 318 321 312 314 323 322 298
157 138 172 170 149 183 174 172 127 130 148 145 109 53 76 208 227 354 357 4 353 359 359 348 341 11 31 332 333 322 323 327 321 326 328 326 322 322 316 320 315 311 309
142 156 186 177 175 173 146 137 134 137 123 91 79 57 336 311 12 5 357 6 359 354 353 345 334 339 9 358 321 312 326 323 327 326 325 325 321 319 317 316 321 316 321
155 159 183 170 152 146 133 133 133 116 113 117 126 125 258 300 12 4 9 1 357 352 351 341 336 334 349 349 327 327 325 329 324 331 326 317 313 314 313 320 315 324 328
156 173 161 147 108 113 149 124 121 114 102 89 78 65 39 27 20 18 2 0 345 348 347 341 334 340 350 339 327 327 324 331 328 325 312 311 311 310 315 314 320 323 332
159 154 137 130 149 133 126 117 96 61 81 94 76 53 36 25 19 18 358 355 347 347 344 344 341 344 337 336 328 339 342 344 321 304 310 305 303 309 313 311 322 324 316
142 131 127 128 139 113 132 127 119 103 93 85 74 49 37 23 17 14 6 1 353 346 350 340 343 342 342 335 345 348 344 313 306 308 300 308 300 301 310 314 321 310 318
133 129 125 119 123 124 117 115 112 107 96 83 63 43 26 20 18 16 8 7 354 347 346 347 346 345 340 339 5 337 312 319 317 316 309 295 300 315 320 326 315 315 317